Location: Recife
(8.0585°S, 34.8848°W)
Time: 11:12:42
(UTC-03:00)

Explorer 7 - Pass Details

Date: 19 April 2026
Orbit: 427 x 536 km, 50.2° (Epoch: 14 May)

Event Time Altitude Azimuth Distance (km) Brightness Sun altitude
Rises 23:39:02 0° 321° (NW) 2,498 - -83.9°
Reaches altitude 10° 23:41:13 10° 320° (NW) 1,606 - -83.4°
Maximum altitude 23:44:50 82° 233° (SW) 460 - -82.7°
Drops below altitude 10° 23:48:21 10° 145° (SE) 1,561 - -81.9°
Sets 23:50:27 0° 144° (SE) 2,420 - -81.4°
